Weather Roundup
Issued by NWS

Home | Current Version | Previous Version | Graphics & Text | Print | Product List | Glossary Off
Versions: 1 2 3 4 5 6 7 8 9 10 11 12 13 14 15 16 17 18 19 20 21 22 23 24 25 26 27 28 29 30 31 32 33 34 35 36 37 38 39 40 41 42 43 44 45 46 47 48 49 50

000
NZUS93 KARX 240710
HRRWXR

CURRENT HOURLY OBSERVATIONS ACROSS
MUCH OF THE UPPER MISSISSIPPI VALLEY
NATIONAL WEATHER SERVICE LA CROSSE WI
200 AM CDT THU JUL 24 2014


...SOUTHEAST MINNESOTA...


CITY           SKY/WX    TMP DP  RH WIND       PRES   REMARKS
ROCHESTER      CLEAR     61  54  77 CALM      30.19R
ROCHESTER/MAYO FAIR      63  57  83 CALM      30.18S
WINONA         CLEAR     59  55  88 NW3       30.17R
AUSTIN           N/A     61  57  88 CALM      30.18R
ALBERT LEA     CLEAR     57  55  94 CALM      30.18S
DODGE CENTER   CLEAR     59  55  88 CALM      30.18S
PRESTON        CLEAR     62  57  86 CALM      30.18S
OWATONNA       CLEAR     55  52  88 CALM      30.18S
FARIBAULT      CLEAR     57  52  82 CALM      30.18S
$$

...ELSEWHERE IN MINNESOTA...


CITY           SKY/WX    TMP DP  RH WIND       PRES   REMARKS
MINNEAPOLIS    CLEAR     67  57  70 E6        30.17S
INTNL FALLS    CLEAR     48  47  96 CALM      30.17F
DULUTH         MOCLDY    57  50  77 E3        30.18F
RED WING       CLEAR     57  55  94 CALM      30.17R
REDWOOD FALLS  CLEAR     61  54  77 CALM      30.17S
MANKATO        CLEAR     63  52  67 CALM      30.18S
WORTHINGTON    CLEAR     57  52  82 CALM      30.20F
FAIRMONT       CLEAR     61  52  72 CALM      30.18S
$$

...SOUTHWEST WISCONSIN...


CITY           SKY/WX    TMP DP  RH WIND       PRES   REMARKS
LA CROSSE      PTCLDY    64  59  83 E3        30.15S
PRAIRIE DU CHI PTCLDY    61  58  88 CALM      30.15S
BOSCOBEL       CLEAR     59  56  89 CALM      30.17R
LONE ROCK      CLEAR     62  54  74 E5        30.18S
PLATTEVILLE    PTCLDY    59  55  87 E7        30.19R
FORT MC COY    CLEAR     53  51  94 CALM      30.17S
CAMP DOUGLAS   CLEAR     52  52 100 SE3       30.16F
VIROQUA        FAIR      60  59  96 SE6       30.17S
WIS DELLS      CLEAR     56  49  77 S3        30.18S
$$

...ELSEWHERE IN WISCONSIN...


CITY           SKY/WX    TMP DP  RH WIND       PRES   REMARKS
MILWAUKEE      CLEAR     58  50  75 NW5       30.16S
MADISON        CLEAR     56  51  84 CALM      30.18S
GREEN BAY      CLOUDY    56  53  90 NW3       30.18S
EAU CLAIRE     CLEAR     58  55  90 CALM      30.17S
BLACK RVR FLS  FAIR      51  51  99 CALM      30.16S
MEDFORD        CLEAR     52  50  93 NE5       30.19S
WAUSAU         CLEAR     56  51  84 E5        30.18S
WIS RAPIDS     CLEAR     59  52  77 S6        30.19S
MARSHFIELD     CLEAR     59  54  83 E6        30.18S
RICE LAKE      MOCLDY    56  54  95 CALM      30.20R
$$

...NORTHEAST IOWA...


CITY           SKY/WX    TMP DP  RH WIND       PRES   REMARKS
WATERLOO       CLEAR     59  56  89 CALM      30.15S
DUBUQUE        CLEAR     60  58  92 SE7       30.17R
DECORAH        CLEAR     59  57  94 CALM      30.16S
MASON CITY     CLEAR     57  56  96 CALM      30.19S
CHARLES CITY   CLEAR     59  55  88 CALM      30.18S
OELWEIN        CLEAR     61  57  88 CALM      30.17S
$$

...ELSEWHERE IN IOWA...


CITY           SKY/WX    TMP DP  RH WIND       PRES   REMARKS
DES MOINES     CLEAR     67  58  72 CALM      30.16S
IOWA CITY      CLEAR     61  58  90 W3        30.16S
FORT DODGE     CLEAR     59  57  94 CALM      30.19R
MARSHALLTOWN   PTCLDY    59  57  93 NW3       30.16S
CEDAR RAPIDS   CLEAR     61  56  83 NW3       30.14F
$$

...NORTHERN ILLINOIS...


CITY           SKY/WX    TMP DP  RH WIND       PRES   REMARKS
CHICAGO-OHARE  CLEAR     59  50  72 N7        30.14S
DUPAGE         CLEAR     53  49  86 N6        30.15S
CHICAGO-MIDWAY CLEAR     64  54  69 N7        30.13S
MOLINE         PTCLDY    60  56  86 E7        30.16R
ROCKFORD       PTCLDY    59  49  69 NE5       30.18F
STERLING       CLEAR     55  52  88 CALM      30.17F
PEORIA         CLEAR     62  54  74 CALM      30.15F
$$

NOTE: "FAIR" INDICATES FEW OR NO CLOUDS BELOW 12,000 FEET WITH NO
SIGNIFICANT WEATHER AND/OR OBSTRUCTIONS TO VISIBILITY. WIND
SPEEDS ARE IN MILES-PER-HOUR.



USA.gov is the U.S. government's official web portal to all federal, state and local government web resources and services.